When you browse on this site, cookies collect data to enhance your experience and personalize the content and advertising you see.
Visit our Privacy Policy to learn more. By continuing to use the site, you agree to this use of cookies and data.
  • In Czech Republic
  • List of Countries
  • For 7 days
  • Water Temperature
  • Weather Map
  • Weather Widgets
  • user-avatar
    Login

    Hourly Weather Korçe

    Today, 15 September, Sunday

    Time Temperature Precipitation Wind Pressure Humidity
    00:00 +14°C° 0 mm 2 mps 672 mmHg 50%
    01:00 +14°C° 0 mm 2 mps 672 mmHg 52%
    02:00 +14°C° 0 mm 2 mps 672 mmHg 54%
    03:00 +14°C° 0 mm 2 mps 672 mmHg 56%
    04:00 +13°C° 0 mm 2 mps 671 mmHg 58%
    05:00 +14°C° 0 mm 2 mps 672 mmHg 57%
    06:00 +15°C° 0 mm 2 mps 672 mmHg 57%
    07:00 +16°C° 0 mm 2 mps 673 mmHg 56%
    08:00 +19°C° 0 mm 2 mps 673 mmHg 50%
    09:00 +21°C° 0 mm 2 mps 674 mmHg 45%
    10:00 +24°C° 0 mm 2 mps 674 mmHg 39%
    11:00 +25°C° 0 mm 1 mps 675 mmHg 36%
    12:00 +26°C° 0 mm 1 mps 675 mmHg 34%
    13:00 +27°C° 0 mm 1 mps 675 mmHg 31%
    14:00 +26°C° 0 mm 2 mps 674 mmHg 32%
    15:00 +26°C° 0 mm 2 mps 674 mmHg 33%
    16:00 +25°C° 0 mm 2 mps 673 mmHg 34%
    17:00 +23°C° 0 mm 2 mps 673 mmHg 41%
    18:00 +19°C° 0 mm 2 mps 672 mmHg 48%
    19:00 +18°C° 0 mm 1 mps 672 mmHg 55%
    20:00 +18°C° 0 mm 1 mps 671 mmHg 56%
    21:00 +16°C° 0 mm 1 mps 671 mmHg 57%
    22:00 +16°C° 0 mm 1 mps 671 mmHg 58%
    23:00 +15°C° 0 mm 1 mps 671 mmHg 58%

    Tomorrow, 16 September, Monday

    Time Temperature Precipitation Wind Pressure Humidity
    00:00 +15°C° 0 mm 1 mps 671 mmHg 58%
    01:00 +15°C° 0 mm 1 mps 671 mmHg 58%
    02:00 +15°C° 0 mm 1 mps 670 mmHg 58%
    03:00 +14°C° 0 mm 1 mps 670 mmHg 58%
    04:00 +14°C° 0 mm 1 mps 670 mmHg 58%
    05:00 +15°C° 0 mm 1 mps 670 mmHg 55%
    06:00 +18°C° 0 mm 1 mps 670 mmHg 52%
    07:00 +19°C° 0 mm 1 mps 670 mmHg 50%
    08:00 +21°C° 0 mm 1 mps 671 mmHg 44%
    09:00 +23°C° 0 mm 1 mps 671 mmHg 39%
    10:00 +25°C° 0 mm 1 mps 672 mmHg 33%
    11:00 +26°C° 0 mm 1 mps 672 mmHg 31%
    12:00 +27°C° 0 mm 2 mps 671 mmHg 30%
    13:00 +27°C° 0 mm 2 mps 671 mmHg 28%
    14:00 +27°C° 0 mm 3 mps 671 mmHg 32%
    15:00 +26°C° 0 mm 3 mps 670 mmHg 36%
    16:00 +25°C° 0 mm 3 mps 670 mmHg 39%
    17:00 +23°C° 0 mm 2 mps 669 mmHg 50%
    18:00 +19°C° 0 mm 2 mps 669 mmHg 60%
    19:00 +18°C° 0 mm 1 mps 668 mmHg 70%
    20:00 +18°C° 0 mm 1 mps 668 mmHg 72%
    21:00 +16°C° 0 mm 1 mps 668 mmHg 74%
    22:00 +15°C° 0 mm 0 mps 668 mmHg 76%
    23:00 +14°C° 0 mm 0 mps 668 mmHg 75%

    Day after tomorrow, 17 September, Tuesday

    Time Temperature Precipitation Wind Pressure Humidity
    00:00 +14°C° 0 mm 0 mps 668 mmHg 75%
    01:00 +14°C° 0 mm 0 mps 668 mmHg 75%
    02:00 +14°C° 0 mm 0 mps 667 mmHg 74%
    03:00 +13°C° 0 mm 0 mps 667 mmHg 74%
    04:00 +13°C° 0 mm 0 mps 667 mmHg 73%
    05:00 +14°C° 0 mm 0 mps 667 mmHg 68%
    06:00 +16°C° 0 mm 0 mps 668 mmHg 63%
    07:00 +17°C° 0 mm 0 mps 668 mmHg 58%
    08:00 +19°C° 0 mm 0 mps 669 mmHg 50%
    09:00 +23°C° 0 mm 1 mps 669 mmHg 42%
    10:00 +25°C° 0 mm 1 mps 670 mmHg 35%
    11:00 +26°C° 0 mm 2 mps 670 mmHg 32%
    12:00 +27°C° 0 mm 2 mps 670 mmHg 29%
    13:00 +27°C° 0 mm 3 mps 669 mmHg 25%
    14:00 +26°C° 0 mm 3 mps 669 mmHg 28%
    15:00 +26°C° 0 mm 3 mps 668 mmHg 31%
    16:00 +25°C° 0 mm 3 mps 668 mmHg 34%
    17:00 +21°C° 0 mm 2 mps 668 mmHg 43%
    18:00 +19°C° 0 mm 2 mps 667 mmHg 53%
    19:00 +18°C° 0 mm 1 mps 667 mmHg 62%
    20:00 +16°C° 0 mm 1 mps 667 mmHg 64%
    21:00 +16°C° 0 mm 1 mps 666 mmHg 66%
    22:00 +14°C° 0 mm 0 mps 666 mmHg 67%
    23:00 +14°C° 0 mm 0 mps 666 mmHg 66%

    18 September, Wednesday

    Time Temperature Precipitation Wind Pressure Humidity
    00:00 +13°C° 0 mm 0 mps 666 mmHg 64%
    01:00 +13°C° 0 mm 0 mps 666 mmHg 62%
    02:00 +13°C° 0 mm 0 mps 666 mmHg 60%
    03:00 +13°C° 0 mm 0 mps 666 mmHg 58%
    04:00 +12°C° 0 mm 0 mps 666 mmHg 57%
    05:00 +14°C° 0 mm 0 mps 666 mmHg 53%
    06:00 +15°C° 0 mm 0 mps 667 mmHg 49%
    07:00 +16°C° 0 mm 0 mps 667 mmHg 45%
    08:00 +21°C° 0 mm 1 mps 668 mmHg 41%
    09:00 +23°C° 0 mm 1 mps 668 mmHg 36%
    10:00 +25°C° 0 mm 2 mps 669 mmHg 32%
    11:00 +25°C° 0 mm 2 mps 669 mmHg 32%
    12:00 +26°C° 0 mm 2 mps 669 mmHg 31%
    13:00 +27°C° 0 mm 3 mps 669 mmHg 31%
    14:00 +26°C° 0 mm 3 mps 668 mmHg 33%
    15:00 +26°C° 0 mm 3 mps 668 mmHg 35%
    16:00 +25°C° 0 mm 3 mps 668 mmHg 37%
    17:00 +23°C° 0 mm 2 mps 667 mmHg 47%
    18:00 +21°C° 0 mm 1 mps 667 mmHg 56%
    19:00 +18°C° 0 mm 1 mps 667 mmHg 66%
    20:00 +18°C° 0 mm 1 mps 667 mmHg 68%
    21:00 +16°C° 0 mm 1 mps 667 mmHg 70%
    22:00 +16°C° 0 mm 1 mps 667 mmHg 72%
    23:00 +16°C° 0 mm 1 mps 667 mmHg 73%

    19 September, Thursday

    Time Temperature Precipitation Wind Pressure Humidity
    00:00 +16°C° 0 mm 1 mps 666 mmHg 74%
    01:00 +16°C° 0 mm 1 mps 666 mmHg 75%
    02:00 +15°C° 0 mm 1 mps 666 mmHg 78%
    03:00 +15°C° 0 mm 1 mps 666 mmHg 80%
    04:00 +15°C° 0 mm 1 mps 665 mmHg 82%
    05:00 +16°C° 0 mm 1 mps 666 mmHg 79%
    06:00 +17°C° 0 mm 2 mps 666 mmHg 75%
    07:00 +18°C° 0 mm 2 mps 666 mmHg 72%
    08:00 +19°C° 0.1 mm 2 mps 667 mmHg 63%
    09:00 +21°C° 0.1 mm 2 mps 667 mmHg 54%
    10:00 +24°C° 0.1 mm 2 mps 668 mmHg 45%
    11:00 +24°C° 0.4 mm 2 mps 667 mmHg 46%
    12:00 +24°C° 0.4 mm 3 mps 667 mmHg 48%
    13:00 +24°C° 0.4 mm 3 mps 666 mmHg 49%
    14:00 +22°C° 1.2 mm 3 mps 666 mmHg 53%
    15:00 +21°C° 1.2 mm 3 mps 666 mmHg 56%
    16:00 +21°C° 1.2 mm 3 mps 666 mmHg 60%
    17:00 +19°C° 0.3 mm 2 mps 666 mmHg 68%
    18:00 +18°C° 0.3 mm 1 mps 665 mmHg 76%
    19:00 +15°C° 0.3 mm 1 mps 665 mmHg 84%
    20:00 +15°C° 0.1 mm 1 mps 666 mmHg 85%
    21:00 +14°C° 0.1 mm 0 mps 666 mmHg 85%
    22:00 +13°C° 0.1 mm 0 mps 666 mmHg 86%
    23:00 +13°C° 0.2 mm 0 mps 666 mmHg 87%

    20 September, Friday

    Time Temperature Precipitation Wind Pressure Humidity
    00:00 +13°C° 0.2 mm 0 mps 666 mmHg 88%
    01:00 +13°C° 0.2 mm 0 mps 666 mmHg 89%
    02:00 +13°C° 0.6 mm 0 mps 666 mmHg 89%
    03:00 +13°C° 0.6 mm 0 mps 666 mmHg 89%
    04:00 +13°C° 0.6 mm 0 mps 665 mmHg 89%
    05:00 +14°C° 0.3 mm 1 mps 665 mmHg 87%
    06:00 +14°C° 0.3 mm 1 mps 666 mmHg 86%
    07:00 +14°C° 0.3 mm 1 mps 666 mmHg 85%
    08:00 +15°C° 0.5 mm 1 mps 666 mmHg 82%
    09:00 +15°C° 0.5 mm 2 mps 667 mmHg 79%
    10:00 +16°C° 0.5 mm 2 mps 667 mmHg 76%
    11:00 +15°C° 0.7 mm 2 mps 667 mmHg 79%
    12:00 +14°C° 0.7 mm 2 mps 667 mmHg 81%
    13:00 +12°C° 0.7 mm 3 mps 666 mmHg 83%
    14:00 +11°C° 0.2 mm 3 mps 666 mmHg 83%
    15:00 +11°C° 0.2 mm 3 mps 666 mmHg 83%
    16:00 +10°C° 0.2 mm 3 mps 666 mmHg 83%
    17:00 +10°C° 0 mm 3 mps 666 mmHg 83%
    18:00 +9°C° 0 mm 3 mps 666 mmHg 83%
    19:00 +8°C° 0 mm 3 mps 666 mmHg 83%
    20:00 +7°C° 0 mm 3 mps 667 mmHg 81%
    21:00 +5°C° 0 mm 3 mps 667 mmHg 80%
    22:00 +6°C° 0 mm 2 mps 667 mmHg 78%
    23:00 +5°C° 0 mm 2 mps 667 mmHg 77%
    Show more